Location: Chavonne
(49.4051°N, 3.5707°E)
Time: 21:26:29
(UTC+00:00)

Daily predictions for brighter satellites

Satellite Brightness Start Highest point End
(mag) Time Altitude Azimuth Time Altitude Azimuth Time Altitude Azimuth
Cosmos 1980 Rocket 3.3 20:27:45 10° NNW 20:32:57 35° NE 20:38:07 10° ESE
Cosmos 1697 Rocket 3.0 20:27:55 10° NNW 20:33:28 58° ENE 20:39:00 10° SE
Cosmos 2344 4.4 20:26:50 10° NW 20:35:18 66° NE 20:46:56 10° ESE
USA 32 4.1 20:30:25 10° S 20:35:38 86° E 20:40:53 10° N
SL-8 R/B 4.0 20:31:23 10° W 20:36:05 55° SSW 20:40:47 10° ESE
TSX-5 4.5 20:34:07 10° SSW 20:38:44 73° ESE 20:44:47 10° NE
SPOT 1/Viking Rocket 4.1 20:36:35 10° S 20:41:40 59° W 20:46:47 10° NNW
Cosmos 2154 Rocket 4.3 20:37:35 10° N 20:43:41 53° ENE 20:49:42 10° SSE
COSMOS 2406 4.1 20:38:49 10° SSE 20:43:41 29° ESE 20:48:33 10° NE
Spot 2 Rocket 3.8 20:39:26 10° SSE 20:44:26 59° ENE 20:49:28 10° N
X-37B 1.4 20:41:58 10° WSW 20:44:27 29° S 20:46:58 10° SE
Cosmos 1025 Rocket 4.3 20:41:21 10° SSW 20:45:26 43° WNW 20:49:35 10° N
SPOT 5 2.7 20:50:04 10° SSE 20:54:23 66° ENE 20:58:41 10° N
Cosmos 2084 Rocket 3.5 20:52:16 10° NW 20:56:07 65° NE 21:00:03 11° SE
Cosmos 1703 3.2 20:52:44 10° S 20:56:33 67° E 21:00:24 10° NNE
RESURS DK-1 2.7 20:53:03 10° NW 20:57:08 60° WSW 21:01:12 10° SSE
Cosmos 1452 Rocket 3.5 20:54:07 10° SSW 20:59:23 88° ESE 21:04:41 10° NNE
Cosmos 1833 Rocket 2.7 20:54:05 10° S 20:59:35 60° ESE 21:05:08 10° NE
Terra 2.1 20:56:27 10° SSE 21:01:06 55° ENE 21:05:46 10° N
CZ-4B R/B 2.5 20:58:49 10° N 21:01:33 38° WNW 21:04:14 10° SW
Helios 1A Rocket 2.9 21:01:06 10° SSE 21:05:10 78° ENE 21:09:18 10° NNW
Cosmos 1110 Rocket 4.0 21:00:10 10° S 21:05:23 66° ESE 21:10:40 10° NNE
FALCON 9 DEB 3.8 21:02:17 10° WNW 21:05:28 50° N 21:08:40 10° E
ERS-1 Rocket 3.0 21:02:37 10° SSE 21:07:38 79° ENE 21:12:41 10° NNW
Cosmos 2322 Rocket 4.3 21:03:48 10° N 21:07:43 19° NE 21:11:37 10° E
Resurs 01 Rocket 3.6 21:04:36 10° SSW 21:08:20 26° W 21:12:07 10° NW
Cosmos 2228 3.0 21:06:47 10° N 21:11:03 86° WSW 21:15:15 10° S
Cosmos 2058 Rocket 4.2 21:07:55 10° N 21:11:55 32° ENE 21:15:19 13° SE
Cosmos 2184 Rocket 4.2 21:08:47 10° NNW 21:14:57 73° W 21:21:08 10° S
Cosmos 1825 4.3 21:15:06 10° ESE 21:16:42 12° E 21:18:19 10° ENE
Lacrosse 5 4.1 21:14:31 10° W 21:17:21 15° WSW 21:20:11 10° SSW
Cosmos 1408 3.8 21:16:14 15° SE 21:18:10 23° E 21:20:58 10° NE
Cosmos 2278 4.5 21:13:50 10° NNW 21:19:19 44° NE 21:24:23 12° ESE
Cosmos 968 Rocket 3.7 21:17:06 10° NNW 21:22:17 64° ENE 21:26:36 15° SE
Cosmos 1328 3.9 21:22:05 11° S 21:25:49 62° E 21:29:46 10° NNE
USA 276 2.1 21:24:23 10° W 21:27:26 77° N 21:30:28 10° E
SJ 16-02 3.7 21:28:41 10° NNE 21:31:16 15° NE 21:33:51 10° E
Cosmos 1867 3.7 21:26:32 10° NW 21:32:02 78° NE 21:36:30 16° SE
Cosmos 2082 Rocket 2.5 21:27:58 10° S 21:33:26 48° ESE 21:38:53 10° NE
USA 267 3.9 21:31:16 10° ENE 21:36:56 31° SE 21:42:35 10° S
ARIANE 5 R/B 2.6 21:35:43 16° SSE 21:39:16 89° W 21:43:43 10° NNW
Cosmos 1606 Rocket 3.8 21:35:27 10° NNW 21:39:45 67° W 21:43:23 14° S
GP-B 3.7 21:36:30 10° NNE 21:40:45 42° E 21:43:35 19° SSE
Cosmos 2341 Rocket 4.1 21:35:46 10° N 21:42:06 68° ENE 21:47:01 17° SSE
Cosmos 2360 Rocket 4.2 21:39:35 10° N 21:43:51 21° NE 21:48:06 10° E
Meteor 1-21 Rocket 4.5 21:38:31 10° SSW 21:44:06 72° WNW 21:49:51 10° N
SAR-Lupe-4 4.4 21:41:50 10° NNE 21:45:07 33° E 21:46:46 22° SE
Cosmos 192 4.3 21:43:42 10° SSW 21:48:35 79° ESE 21:53:30 10° NNE
Okean 1-7 Rocket 4.2 21:58:40 22° SSE 22:01:07 42° E 22:05:22 10° NNE
SAR-Lupe-1 4.1 21:58:11 10° NNE 22:01:45 58° ESE 22:03:39 25° S
Cosmos 1726 Rocket 4.2 21:58:14 10° NNW 22:02:26 51° W 22:05:41 16° SSW
Cosmos 1892 2.6 22:02:06 23° S 22:04:20 71° E 22:08:07 10° NNE
Cosmos 2181 Rocket 4.0 22:07:21 19° S 22:11:52 67° E 22:18:05 10° NNE
USA 234 3.6 22:06:14 10° ESE 22:12:44 68° NNE 22:19:14 10° WNW
Cosmos 1633 3.9 22:12:09 21° ESE 22:13:02 24° E 22:15:53 10° NE
Cosmos 1697 Rocket 4.2 22:12:27 10° NW 22:17:04 27° WSW 22:21:16 12° SSW
Cosmos 1980 Rocket 2.7 22:11:41 10° NW 22:17:11 50° WSW 22:20:52 20° S
SL-16 R/B 2.7 22:11:42 10° NNW 22:17:18 54° NE 22:21:23 18° SE
Cosmos 1486 Rocket 4.0 22:12:36 10° NNW 22:17:51 83° ENE 22:21:05 24° SSE
Cosmos 1992 Rocket 4.1 22:15:19 21° S 22:18:46 58° ESE 22:23:56 10° NNE
X-37B 2.9 22:18:05 10° SW 22:18:13 10° SW 22:18:13 10° SW
Cosmos 1812 Rocket 4.3 22:15:32 10° N 22:19:49 44° ENE 22:22:08 24° SE
Cosmos 1932 4.4 22:14:22 10° SSW 22:20:32 68° ESE 22:26:50 10° NE
Cosmos 2369 4.5 22:15:21 10° NW 22:20:44 43° WSW 22:24:30 19° S
Cosmos 2219 Rocket 4.4 22:16:50 10° N 22:20:53 19° NE 22:24:55 10° E
COSMOS 2406 3.9 22:22:01 10° SW 22:27:41 56° NW 22:33:22 10° NNE
Cosmos-2242 3.7 22:25:07 10° N 22:29:10 42° ENE 22:31:12 25° SE
ATLAS 5 CENTAUR R/B 1.2 22:29:23 26° SSW 22:31:20 59° SE 22:35:28 10° NE
Cosmos 1869 3.2 22:29:28 10° NNW 22:33:22 80° W 22:35:09 31° S
Cosmos 807 4.1 22:30:37 10° N 22:33:43 64° E 22:34:24 44° SE
Cosmos 1602 Rocket 3.8 22:32:12 29° SSE 22:34:04 51° E 22:38:16 10° NNE
In-Cosmos 22 Rocket 4.1 22:30:23 19° SSW 22:34:27 86° WNW 22:39:54 10° N
ERS-2 4.2 22:35:14 10° ENE 22:37:12 14° E 22:37:40 14° E
Meteor 1-27 4.3 22:33:38 10° NNW 22:39:11 70° W 22:42:35 24° S
Terra 3.8 22:35:37 10° SW 22:39:11 21° W 22:42:47 10° NW
FALCON 9 DEB 3.2 22:38:35 10° WNW 22:41:46 51° SSW 22:42:17 45° S
ALOS 2 3.1 22:39:49 26° SE 22:42:02 51° ENE 22:46:18 10° N
ASTEX 1 4.0 22:37:13 10° N 22:42:06 54° WNW 22:45:50 17° SSW
Cosmos 1354 Rocket 4.1 22:40:46 10° NNW 22:46:05 73° ENE 22:49:06 26° SE
BREEZE-M DEB (TANK) 3.5 22:44:54 10° W 22:48:01 84° S 22:59:36 10° ESE
ADEOS Rocket 3.7 22:45:43 22° SSE 22:50:50 71° ENE 22:58:34 10° NNW
Cosmos 1825 2.5 22:49:40 26° SSW 22:51:33 58° WNW 22:55:16 10° N
Cosmos 1408 4.4 22:50:12 12° SW 22:52:46 24° WNW 22:55:40 10° NNW
Cosmos 2322 Rocket 2.4 22:47:08 10° NNW 22:52:50 71° ENE 22:56:24 24° SE
Cosmos 1503 Rocket 4.0 22:50:33 10° NNW 22:55:53 80° WSW 22:58:35 29° SSE
Cosmos 1626 Rocket 3.8 22:54:43 25° SSW 22:57:09 64° WNW 23:01:30 10° N
USA 276 2.3 23:00:10 10° W 23:02:49 47° SW 23:02:49 47° SW
Cosmos 1777 Rocket 4.2 22:58:37 10° NNW 23:03:55 69° ENE 23:06:53 26° SE
Cosmos 2333 Rocket 3.2 23:02:29 10° NNW 23:07:59 42° NE 23:12:52 13° ESE
Cosmos 1825 Rocket 3.9 23:08:17 34° SSE 23:09:50 52° E 23:14:05 10° NNE
SJ 16-02 1.3 23:06:01 10° NNW 23:10:29 87° WSW 23:12:19 35° SSE
Gbstr 26 Del rocket 3.8 23:11:09 31° SE 23:11:20 31° SE 23:15:45 10° ENE
CENTAUR R/B 4.5 23:10:22 10° ESE 23:11:20 10° E 23:12:19 10° E
Cosmos 1340 Rocket 3.7 23:13:04 30° SE 23:14:05 36° E 23:17:44 10° NNE
Meteor 2-20 4.4 23:13:52 25° SSW 23:17:35 84° W 23:23:43 10° N
Cosmos 2082 Rocket 3.7 23:12:28 10° WSW 23:17:41 36° NW 23:22:56 10° NNE
H-2A R/B 3.4 23:15:00 10° NNE 23:19:13 87° E 23:20:55 36° SSW
USA 267 3.2 23:13:56 10° ENE 23:20:31 86° SSE 23:27:05 10° WSW
Cosmos 2221 3.3 23:22:08 10° N 23:26:18 43° ENE 23:28:17 26° SE
Cosmos 1606 2.8 23:23:16 10° NNW 23:27:06 65° W 23:28:16 41° SSW
Cosmos 2058 2.9 23:26:08 39° S 23:27:36 74° E 23:31:48 10° NNE
Cosmos 2360 Rocket 2.2 23:23:00 10° NNW 23:28:44 84° ENE 23:31:59 27° SSE
Cosmos 1934 Rocket 4.0 23:23:32 10° N 23:29:39 76° E 23:33:06 28° SSE
Meteor 2-2 Rocket 4.4 23:35:21 10° NNW 23:41:23 80° W 23:44:36 29° S
Cosmos 1833 4.5 23:39:57 31° S 23:42:23 52° ESE 23:47:48 10° NE
Cosmos 44 3.6 23:41:21 35° SSE 23:42:32 43° ESE 23:46:46 10° NE
Cosmos 1633 4.3 23:45:56 18° WSW 23:47:28 24° WNW 23:50:22 10° NNW
Cosmos 2237 Rocket 4.4 23:48:23 10° NNW 23:52:54 23° NE 23:57:23 10° E
Cosmos 1339 Rocket 4.5 23:50:04 29° S 23:53:26 79° E 23:59:35 10° NNE
